Time,TemperatureF,DewpointF,PressureIn,WindDirection,WindDirectionDegrees,WindSpeedMPH,WindSpeedGustMPH,Humidity,HourlyPrecipIn,Conditions,Clouds,dailyrainin,SoftwareType,DateUTC
2013-03-17 00:03:00,33.0,33.0,-100.00,NNE,30,0.0,0.0,99,0.00,,,-99.99,,2013-03-17 04:03:00,
2013-03-17 00:13:00,33.0,33.0,-100.00,NNE,30,0.0,0.0,99,0.00,,,-99.99,,2013-03-17 04:13:00,
2013-03-17 00:23:00,33.0,33.0,-100.00,NNE,30,0.0,0.0,99,0.00,,,-99.99,,2013-03-17 04:23:00,
2013-03-17 00:33:00,33.0,33.0,-100.00,East,100,0.0,1.0,99,0.00,,,-99.99,,2013-03-17 04:33:00,
2013-03-17 00:43:00,33.0,33.0,-100.00,ESE,105,0.0,1.0,99,0.00,,,-99.99,,2013-03-17 04:43:00,
2013-03-17 00:53:00,33.0,33.0,-100.00,SE,145,0.0,1.0,99,0.00,,,-99.99,,2013-03-17 04:53:00,
2013-03-17 01:03:00,33.0,33.0,-100.00,ESE,105,0.0,0.0,99,0.00,,,-99.99,,2013-03-17 05:03:00,
2013-03-17 01:12:00,33.0,33.0,-100.00,SSE,165,0.0,0.0,99,0.00,,,-99.99,,2013-03-17 05:12:00,
2013-03-17 01:22:00,33.0,33.0,-100.00,SE,135,0.0,0.0,99,0.00,,,-99.99,,2013-03-17 05:22:00,
2013-03-17 01:32:00,33.0,33.0,-100.00,SE,140,0.0,1.0,99,0.00,,,-99.99,,2013-03-17 05:32:00,
2013-03-17 01:42:00,33.0,33.0,-100.00,ESE,115,0.0,1.0,99,0.00,,,-99.99,,2013-03-17 05:42:00,
2013-03-17 01:52:00,33.0,33.0,-100.00,South,170,2.0,3.0,99,0.00,,,-99.99,,2013-03-17 05:52:00,
2013-03-17 02:02:00,33.0,33.0,-100.00,South,170,2.0,4.0,99,0.00,,,-99.99,,2013-03-17 06:02:00,
2013-03-17 02:12:00,33.0,33.0,-100.00,South,185,0.0,3.0,99,0.00,,,-99.99,,2013-03-17 06:12:00,
2013-03-17 02:22:00,33.0,33.0,-100.00,South,185,0.0,3.0,99,0.00,,,-99.99,,2013-03-17 06:22:00,
2013-03-17 02:32:00,33.0,33.0,-100.00,SE,135,0.0,0.0,99,0.00,,,-99.99,,2013-03-17 06:32:00,
2013-03-17 02:42:00,33.0,33.0,-100.00,West,260,0.0,0.0,99,0.00,,,-99.99,,2013-03-17 06:42:00,
2013-03-17 02:52:00,33.0,33.0,-100.00,West,260,0.0,0.0,99,0.00,,,-99.99,,2013-03-17 06:52:00,
2013-03-17 03:02:00,33.0,33.0,-100.00,West,260,0.0,0.0,99,0.00,,,-99.99,,2013-03-17 07:02:00,
2013-03-17 03:12:00,33.0,33.0,-100.00,WSW,255,0.0,0.0,99,0.00,,,-99.99,,2013-03-17 07:12:00,
2013-03-17 03:22:00,33.0,33.0,-100.00,South,180,0.0,0.0,99,0.00,,,-99.99,,2013-03-17 07:22:00,
2013-03-17 03:32:00,33.0,33.0,-100.00,South,185,0.0,0.0,99,0.00,,,-99.99,,2013-03-17 07:32:00,
2013-03-17 03:42:00,33.0,33.0,-100.00,WSW,240,0.0,1.0,99,0.00,,,-99.99,,2013-03-17 07:42:00,
2013-03-17 03:52:00,33.0,33.0,-100.00,West,280,0.0,0.0,99,0.00,,,-99.99,,2013-03-17 07:52:00,
2013-03-17 04:03:00,33.0,33.0,-100.00,West,280,0.0,0.0,99,0.00,,,-99.99,,2013-03-17 08:03:00,
2013-03-17 04:13:00,33.0,33.0,-100.00,West,260,0.0,2.0,99,0.00,,,-99.99,,2013-03-17 08:13:00,
2013-03-17 04:22:00,34.0,34.0,-100.00,West,260,1.0,3.0,99,0.00,,,-99.99,,2013-03-17 08:22:00,
2013-03-17 04:33:00,34.0,34.0,-100.00,WSW,245,3.0,7.0,99,0.00,,,-99.99,,2013-03-17 08:33:00,
2013-03-17 04:42:00,34.0,34.0,-100.00,West,270,1.0,4.0,99,0.00,,,-99.99,,2013-03-17 08:42:00,
2013-03-17 04:52:00,34.0,34.0,-100.00,West,275,3.0,6.0,99,0.00,,,-99.99,,2013-03-17 08:52:00,
2013-03-17 05:03:00,34.0,34.0,-100.00,WSW,255,2.0,4.0,99,0.00,,,-99.99,,2013-03-17 09:03:00,
2013-03-17 05:12:00,34.0,34.0,-100.00,West,265,1.0,4.0,99,0.00,,,-99.99,,2013-03-17 09:12:00,
2013-03-17 05:22:00,34.0,34.0,-100.00,West,270,2.0,5.0,99,0.00,,,-99.99,,2013-03-17 09:22:00,
2013-03-17 05:32:00,34.0,34.0,-100.00,West,270,4.0,6.0,99,0.00,,,-99.99,,2013-03-17 09:32:00,
2013-03-17 05:43:00,34.0,34.0,-100.00,WNW,285,4.0,6.0,99,0.00,,,-99.99,,2013-03-17 09:43:00,
2013-03-17 05:53:00,34.0,34.0,-100.00,WNW,285,4.0,6.0,99,0.00,,,-99.99,,2013-03-17 09:53:00,
2013-03-17 06:03:00,34.0,34.0,-100.00,WNW,290,2.0,6.0,99,0.00,,,-99.99,,2013-03-17 10:03:00,
2013-03-17 06:13:00,34.0,34.0,-100.00,West,270,1.0,4.0,99,0.00,,,-99.99,,2013-03-17 10:13:00,
2013-03-17 06:23:00,34.0,34.0,-100.00,West,270,2.0,3.0,99,0.00,,,-99.99,,2013-03-17 10:23:00,
2013-03-17 06:33:00,34.0,34.0,-100.00,West,270,2.0,4.0,99,0.00,,,-99.99,,2013-03-17 10:33:00,
2013-03-17 06:42:00,34.0,34.0,-100.00,WSW,245,1.0,2.0,99,0.00,,,-99.99,,2013-03-17 10:42:00,
2013-03-17 06:52:00,34.0,34.0,-100.00,West,265,1.0,2.0,99,0.00,,,-99.99,,2013-03-17 10:52:00,
2013-03-17 07:02:00,34.0,34.0,-100.00,West,280,0.0,2.0,99,0.00,,,-99.99,,2013-03-17 11:02:00,
2013-03-17 07:12:00,34.0,34.0,-100.00,West,265,2.0,6.0,99,0.00,,,-99.99,,2013-03-17 11:12:00,
2013-03-17 07:22:00,35.0,34.0,-100.00,WSW,250,3.0,6.0,99,0.00,,,-99.99,,2013-03-17 11:22:00,
2013-03-17 07:32:00,34.0,34.0,-100.00,West,280,4.0,7.0,99,0.00,,,-99.99,,2013-03-17 11:32:00,
2013-03-17 07:42:00,34.0,34.0,-100.00,West,265,4.0,9.0,99,0.00,,,-99.99,,2013-03-17 11:42:00,
2013-03-17 07:52:00,34.0,33.0,-100.00,NNW,340,7.0,13.0,96,0.00,,,-99.99,,2013-03-17 11:52:00,
2013-03-17 08:02:00,34.0,32.0,-100.00,NW,325,5.0,12.0,91,0.00,,,-99.99,,2013-03-17 12:02:00,
2013-03-17 08:12:00,34.0,32.0,-100.00,NNW,330,5.0,12.0,90,0.00,,,-99.99,,2013-03-17 12:12:00,
2013-03-17 08:22:00,34.0,32.0,-100.00,North,350,6.0,14.0,92,0.00,,,-99.99,,2013-03-17 12:22:00,
2013-03-17 08:33:00,34.0,33.0,-100.00,NNW,345,9.0,15.0,96,0.00,,,-99.99,,2013-03-17 12:33:00,
2013-03-17 08:43:00,33.0,33.0,-100.00,NNW,345,9.0,17.0,98,0.00,,,-99.99,,2013-03-17 12:43:00,
2013-03-17 08:52:00,33.0,33.0,-100.00,North,0,11.0,16.0,99,0.00,,,-99.99,,2013-03-17 12:52:00,
2013-03-17 09:02:00,33.0,33.0,-100.00,North,350,7.0,12.0,99,0.00,,,-99.99,,2013-03-17 13:02:00,
2013-03-17 09:12:00,33.0,33.0,-100.00,North,0,7.0,11.0,99,0.00,,,-99.99,,2013-03-17 13:12:00,
2013-03-17 09:22:00,33.0,33.0,-100.00,NNW,345,5.0,11.0,99,0.00,,,-99.99,,2013-03-17 13:22:00,
2013-03-17 09:32:00,33.0,32.0,-100.00,North,0,6.0,13.0,96,0.00,,,-99.99,,2013-03-17 13:32:00,
2013-03-17 09:42:00,34.0,32.0,-100.00,North,350,3.0,9.0,94,0.00,,,-99.99,,2013-03-17 13:42:00,
2013-03-17 09:52:00,33.0,31.0,-100.00,North,0,6.0,8.0,91,0.00,,,-99.99,,2013-03-17 13:52:00,
2013-03-17 10:02:00,34.0,30.0,-100.00,North,10,4.0,12.0,85,0.00,,,-99.99,,2013-03-17 14:02:00,
2013-03-17 10:12:00,34.0,28.0,-100.00,NNW,345,9.0,16.0,79,0.00,,,-99.99,,2013-03-17 14:12:00,
2013-03-17 10:22:00,34.0,26.0,-100.00,North,0,6.0,12.0,72,0.00,,,-99.99,,2013-03-17 14:22:00,
2013-03-17 10:33:00,34.0,25.0,-100.00,NNE,20,6.0,16.0,67,0.00,,,-99.99,,2013-03-17 14:33:00,
2013-03-17 10:42:00,34.0,24.0,-100.00,North,5,8.0,15.0,65,0.00,,,-99.99,,2013-03-17 14:42:00,
2013-03-17 10:52:00,34.0,23.0,-100.00,North,0,7.0,14.0,64,0.00,,,-99.99,,2013-03-17 14:52:00,
2013-03-17 11:02:00,34.0,24.0,-100.00,North,355,7.0,12.0,67,0.00,,,-99.99,,2013-03-17 15:02:00,
2013-03-17 11:12:00,34.0,26.0,-100.00,NNW,345,7.0,12.0,71,0.00,,,-99.99,,2013-03-17 15:12:00,
2013-03-17 11:23:00,34.0,27.0,-100.00,North,0,7.0,12.0,75,0.00,,,-99.99,,2013-03-17 15:23:00,
2013-03-17 11:33:00,33.0,26.0,-100.00,North,10,7.0,14.0,75,0.00,,,-99.99,,2013-03-17 15:33:00,
2013-03-17 11:43:00,33.0,26.0,-100.00,North,0,9.0,14.0,74,0.00,,,-99.99,,2013-03-17 15:43:00,
2013-03-17 11:52:00,33.0,28.0,-100.00,North,355,7.0,11.0,79,0.00,,,-99.99,,2013-03-17 15:52:00,
2013-03-17 12:03:00,33.0,28.0,-100.00,North,0,9.0,15.0,80,0.00,,,-99.99,,2013-03-17 16:03:00,
2013-03-17 12:12:00,33.0,28.0,-100.00,North,0,6.0,14.0,79,0.00,,,-99.99,,2013-03-17 16:12:00,
2013-03-17 12:23:00,33.0,27.0,-100.00,North,0,6.0,11.0,76,0.00,,,-99.99,,2013-03-17 16:23:00,
2013-03-17 12:33:00,33.0,26.0,-100.00,North,0,7.0,12.0,75,0.00,,,-99.99,,2013-03-17 16:33:00,
2013-03-17 12:42:00,33.0,26.0,-100.00,North,0,8.0,12.0,72,0.00,,,-99.99,,2013-03-17 16:42:00,
2013-03-17 12:52:00,33.0,25.0,-100.00,North,0,7.0,12.0,71,0.00,,,-99.99,,2013-03-17 16:52:00,
2013-03-17 13:02:00,35.0,26.0,-100.00,NE,40,4.0,12.0,71,0.00,,,-99.99,,2013-03-17 17:02:00,
2013-03-17 13:12:00,34.0,25.0,-100.00,North,0,6.0,9.0,69,0.00,,,-99.99,,2013-03-17 17:12:00,
2013-03-17 13:22:00,35.0,27.0,-100.00,North,0,2.0,11.0,71,0.00,,,-99.99,,2013-03-17 17:22:00,
2013-03-17 13:33:00,34.0,25.0,-100.00,North,355,6.0,9.0,69,0.00,,,-99.99,,2013-03-17 17:33:00,
2013-03-17 13:42:00,34.0,25.0,-100.00,North,0,9.0,12.0,71,0.00,,,-99.99,,2013-03-17 17:42:00,
2013-03-17 13:52:00,34.0,26.0,-100.00,North,0,9.0,13.0,71,0.00,,,-99.99,,2013-03-17 17:52:00,
2013-03-17 14:02:00,34.0,25.0,-100.00,North,0,7.0,12.0,70,0.00,,,-99.99,,2013-03-17 18:02:00,
2013-03-17 14:12:00,35.0,26.0,-100.00,NNW,345,4.0,12.0,69,0.00,,,-99.99,,2013-03-17 18:12:00,
2013-03-17 14:22:00,35.0,26.0,-100.00,NE,50,4.0,9.0,67,0.00,,,-99.99,,2013-03-17 18:22:00,
2013-03-17 14:32:00,34.0,25.0,-100.00,North,0,8.0,11.0,67,0.00,,,-99.99,,2013-03-17 18:32:00,
2013-03-17 14:42:00,35.0,25.0,-100.00,North,0,4.0,10.0,65,0.00,,,-99.99,,2013-03-17 18:42:00,
2013-03-17 14:52:00,35.0,24.0,-100.00,North,0,9.0,11.0,65,0.00,,,-99.99,,2013-03-17 18:52:00,
2013-03-17 15:02:00,35.0,24.0,-100.00,NNE,20,6.0,9.0,64,0.00,,,-99.99,,2013-03-17 19:02:00,
2013-03-17 15:12:00,35.0,24.0,-100.00,North,0,6.0,11.0,64,0.00,,,-99.99,,2013-03-17 19:12:00,
2013-03-17 15:22:00,35.0,24.0,-100.00,NNE,20,6.0,9.0,63,0.00,,,-99.99,,2013-03-17 19:22:00,
2013-03-17 15:33:00,35.0,24.0,-100.00,North,0,6.0,11.0,64,0.00,,,-99.99,,2013-03-17 19:33:00,
2013-03-17 15:42:00,35.0,24.0,-100.00,North,0,6.0,11.0,64,0.00,,,-99.99,,2013-03-17 19:42:00,
2013-03-17 15:53:00,35.0,23.0,-100.00,North,350,6.0,12.0,60,0.00,,,-99.99,,2013-03-17 19:53:00,
2013-03-17 16:02:00,35.0,23.0,-100.00,NNE,30,6.0,12.0,61,0.00,,,-99.99,,2013-03-17 20:02:00,
2013-03-17 16:12:00,36.0,24.0,-100.00,North,0,3.0,9.0,60,0.00,,,-99.99,,2013-03-17 20:12:00,
2013-03-17 16:22:00,36.0,24.0,-100.00,NE,35,5.0,8.0,63,0.00,,,-99.99,,2013-03-17 20:22:00,
2013-03-17 16:33:00,35.0,24.0,-100.00,NNW,345,7.0,12.0,62,0.00,,,-99.99,,2013-03-17 20:33:00,
2013-03-17 16:42:00,35.0,23.0,-100.00,North,0,4.0,11.0,61,0.00,,,-99.99,,2013-03-17 20:42:00,
2013-03-17 16:52:00,35.0,24.0,-100.00,North,0,4.0,9.0,63,0.00,,,-99.99,,2013-03-17 20:52:00,
2013-03-17 17:03:00,35.0,24.0,-100.00,North,0,4.0,9.0,63,0.00,,,-99.99,,2013-03-17 21:03:00,
2013-03-17 17:12:00,35.0,23.0,-100.00,NE,35,4.0,12.0,61,0.00,,,-99.99,,2013-03-17 21:12:00,
2013-03-17 17:22:00,35.0,24.0,-100.00,North,0,7.0,12.0,63,0.00,,,-99.99,,2013-03-17 21:22:00,
2013-03-17 17:33:00,35.0,23.0,-100.00,North,0,6.0,12.0,62,0.00,,,-99.99,,2013-03-17 21:33:00,
2013-03-17 17:43:00,35.0,24.0,-100.00,North,5,4.0,9.0,62,0.00,,,-99.99,,2013-03-17 21:43:00,
2013-03-17 17:52:00,35.0,22.0,-100.00,North,0,6.0,12.0,60,0.00,,,-99.99,,2013-03-17 21:52:00,
2013-03-17 18:03:00,35.0,22.0,-100.00,NNE,15,6.0,12.0,60,0.00,,,-99.99,,2013-03-17 22:03:00,
2013-03-17 18:12:00,35.0,22.0,-100.00,NNE,20,6.0,11.0,59,0.00,,,-99.99,,2013-03-17 22:12:00,
2013-03-17 18:23:00,34.0,22.0,-100.00,North,10,7.0,11.0,59,0.00,,,-99.99,,2013-03-17 22:23:00,
2013-03-17 18:33:00,34.0,22.0,-100.00,North,0,6.0,12.0,61,0.00,,,-99.99,,2013-03-17 22:33:00,
2013-03-17 18:42:00,34.0,22.0,-100.00,North,10,4.0,13.0,62,0.00,,,-99.99,,2013-03-17 22:42:00,
2013-03-17 18:52:00,34.0,23.0,-100.00,NNE,25,6.0,11.0,62,0.00,,,-99.99,,2013-03-17 22:52:00,
2013-03-17 19:03:00,33.0,22.0,-100.00,North,0,6.0,11.0,63,0.00,,,-99.99,,2013-03-17 23:03:00,
2013-03-17 19:12:00,34.0,23.0,-100.00,NE,35,4.0,9.0,63,0.00,,,-99.99,,2013-03-17 23:12:00,
2013-03-17 19:22:00,33.0,23.0,-100.00,NNE,30,4.0,9.0,65,0.00,,,-99.99,,2013-03-17 23:22:00,
2013-03-17 19:33:00,33.0,23.0,-100.00,NNE,20,5.0,7.0,66,0.00,,,-99.99,,2013-03-17 23:33:00,
2013-03-17 19:42:00,32.0,23.0,-100.00,North,0,6.0,9.0,68,0.00,,,-99.99,,2013-03-17 23:42:00,
2013-03-17 19:52:00,32.0,23.0,-100.00,NE,35,2.0,6.0,69,0.00,,,-99.99,,2013-03-17 23:52:00,
2013-03-17 20:03:00,32.0,23.0,-100.00,NNE,30,2.0,6.0,71,0.00,,,-99.99,,2013-03-18 00:03:00,
2013-03-17 20:12:00,31.0,23.0,-100.00,NE,35,1.0,4.0,71,0.00,,,-99.99,,2013-03-18 00:12:00,
2013-03-17 20:22:00,31.0,24.0,-100.00,NE,40,4.0,7.0,72,0.00,,,-99.99,,2013-03-18 00:22:00,
2013-03-17 20:33:00,31.0,24.0,-100.00,NNE,30,2.0,4.0,72,0.00,,,-99.99,,2013-03-18 00:33:00,
2013-03-17 20:42:00,31.0,23.0,-100.00,NE,45,2.0,5.0,72,0.00,,,-99.99,,2013-03-18 00:42:00,
2013-03-17 20:52:00,31.0,23.0,-100.00,NNE,20,3.0,6.0,73,0.00,,,-99.99,,2013-03-18 00:52:00,
2013-03-17 21:02:00,31.0,23.0,-100.00,NNE,30,3.0,7.0,72,0.00,,,-99.99,,2013-03-18 01:02:00,
2013-03-17 21:12:00,31.0,23.0,-100.00,NE,35,2.0,5.0,73,0.00,,,-99.99,,2013-03-18 01:12:00,
2013-03-17 21:22:00,31.0,23.0,-100.00,NNE,25,2.0,6.0,73,0.00,,,-99.99,,2013-03-18 01:22:00,
2013-03-17 21:32:00,30.0,23.0,-100.00,NE,35,4.0,6.0,73,0.00,,,-99.99,,2013-03-18 01:32:00,
2013-03-17 21:42:00,30.0,23.0,-100.00,NE,40,1.0,6.0,73,0.00,,,-99.99,,2013-03-18 01:42:00,
2013-03-17 21:52:00,30.0,23.0,-100.00,NNE,30,3.0,7.0,73,0.00,,,-99.99,,2013-03-18 01:52:00,
2013-03-17 22:02:00,30.0,22.0,-100.00,NE,40,2.0,6.0,73,0.00,,,-99.99,,2013-03-18 02:02:00,
2013-03-17 22:12:00,30.0,22.0,-100.00,NE,40,2.0,7.0,73,0.00,,,-99.99,,2013-03-18 02:12:00,
2013-03-17 22:22:00,30.0,22.0,-100.00,NE,45,1.0,7.0,73,0.00,,,-99.99,,2013-03-18 02:22:00,
2013-03-17 22:32:00,30.0,23.0,-100.00,NE,45,3.0,6.0,74,0.00,,,-99.99,,2013-03-18 02:32:00,
2013-03-17 22:42:00,30.0,22.0,-100.00,NE,40,2.0,8.0,74,0.00,,,-99.99,,2013-03-18 02:42:00,
2013-03-17 22:52:00,30.0,22.0,-100.00,NNE,25,1.0,7.0,74,0.00,,,-99.99,,2013-03-18 02:52:00,
2013-03-17 23:03:00,30.0,22.0,-100.00,NE,55,2.0,6.0,74,0.00,,,-99.99,,2013-03-18 03:03:00,
2013-03-17 23:11:00,29.0,22.0,-100.00,ENE,60,2.0,7.0,74,0.00,,,-99.99,,2013-03-18 03:11:00,
2013-03-17 23:22:00,30.0,22.0,-100.00,NE,50,4.0,7.0,73,0.00,,,-99.99,,2013-03-18 03:22:00,
2013-03-17 23:33:00,30.0,22.0,-100.00,NE,55,3.0,6.0,73,0.00,,,-99.99,,2013-03-18 03:33:00,
2013-03-17 23:42:00,29.0,22.0,-100.00,NE,50,3.0,7.0,72,0.00,,,-99.99,,2013-03-18 03:42:00,
2013-03-17 23:53:00,29.0,22.0,-100.00,NE,50,3.0,7.0,72,0.00,,,-99.99,,2013-03-18 03:53:00,